EW5549 Weather Reports


Display with metric or nautical units.
time (UTC)temp
F
wind
direction
speed
MPH
gust
MPH
rain 1hr
in
rain 24hr
in
rain mn
in
humidity
%
barometer
mb
20260506105633 25 56 0.0 1.0 0.00 0.00 0.00 84 1020.5
20260506105130 26 45 1.0 1.0 0.00 0.00 0.00 83 1020.7
20260506104629 26 37 0.0 0.0 0.00 0.00 0.00 84 1020.6
20260506104126 25 51 0.0 0.0 0.00 0.00 0.00 84 1020.6
20260506103623 25 84 0.0 0.0 0.00 0.00 0.00 84 1020.7
20260506103120 26 100 1.0 2.0 0.00 0.00 0.00 85 1020.7
20260506102618 25 60 0.0 0.0 0.00 0.00 0.00 86 1020.6
20260506102115 26 74 0.0 0.0 0.00 0.00 0.00 84 1020.6
20260506101612 26 98 0.0 0.0 0.00 0.00 0.00 84 1020.5
20260506101108 26 98 0.0 0.0 0.00 0.00 0.00 85 1020.8
20260506100607 26 98 1.0 1.0 0.00 0.00 0.00 84 1020.5
20260506100105 26 359 2.0 2.0 0.00 0.00 0.00 85 1020.8
20260506095604 26 20 0.0 0.0 0.00 0.00 0.00 84 1020.8
20260506095100 26 45 0.0 0.0 0.00 0.00 0.00 82 1020.9
20260506094557 27 86 0.0 0.0 0.00 0.00 0.00 81 1020.7
20260506094055 27 104 1.0 1.0 0.00 0.00 0.00 83 1020.7
20260506093553 27 104 1.0 1.0 0.00 0.00 0.00 83 1020.7
20260506093051 28 158 1.0 1.0 0.00 0.00 0.00 83 1020.7
20260506092548 27 158 1.0 1.0 0.00 0.00 0.00 83 1020.8
20260506092045 27 158 2.0 2.0 0.00 0.00 0.00 83 1020.9
20260506091543 27 79 0.0 0.0 0.00 0.00 0.00 83 1020.8
20260506091039 27 79 0.0 0.0 0.00 0.00 0.00 82 1020.9
20260506090538 27 79 0.0 0.0 0.00 0.00 0.00 84 1020.9
20260506090034 26 78 1.0 1.0 0.00 0.00 0.00 85 1020.7
20260506085531 27 78 0.0 0.0 0.00 0.00 0.00 84 1020.8
20260506085027 28 78 0.0 0.0 0.00 0.00 0.00 82 1021.1
20260506084525 28 97 0.0 0.0 0.00 0.00 0.00 82 1021.1
20260506084020 28 97 1.0 1.0 0.00 0.00 0.00 83 1021.1
20260506083517 27 98 2.0 2.0 0.00 0.00 0.00 84 1021.2
20260506083015 27 67 1.0 1.0 0.00 0.00 0.00 84 1020.9
20260506082512 27 97 0.0 0.0 0.00 0.00 0.00 82 1021.3
20260506082007 28 97 0.0 0.0 0.00 0.00 0.00 80 1020.9
20260506081506 28 97 0.0 0.0 0.00 0.00 0.00 80 1021.2
20260506081003 29 97 0.0 0.0 0.00 0.00 0.00 79 1021.2
20260506080500 28 97 0.0 0.0 0.00 0.00 0.00 80 1021.1
20260506073443 31 98 1.0 2.0 0.00 0.00 0.00 75 1021.2
20260506072941 32 97 0.0 0.0 0.00 0.00 0.00 74 1021.3
20260506072438 31 97 1.0 1.0 0.00 0.00 0.00 75 1021.4
20260506071936 30 104 5.0 5.0 0.00 0.00 0.00 77 1021.4
20260506071433 32 261 0.0 0.0 0.00 0.00 0.00 73 1021.5
20260506070930 32 261 2.0 2.0 0.00 0.00 0.00 72 1021.5
20260506070427 32 212 2.0 2.0 0.00 0.00 0.00 74 1021.5
20260506062405 33 154 0.0 1.0 0.00 0.00 0.00 71 1021.5
20260506061900 33 154 1.0 1.0 0.00 0.00 0.00 72 1021.4
20260506061357 32 208 2.0 2.0 0.00 0.00 0.00 74 1021.4
20260506060855 33 210 3.0 3.0 0.00 0.00 0.00 72 1021.2
20260506060353 32 205 2.0 2.0 0.00 0.00 0.00 72 1021.4
20260506051325 35 173 0.0 0.0 0.00 0.00 0.00 70 1021.3
20260506050823 35 173 0.0 0.0 0.00 0.00 0.00 69 1021.1
20260506050320 36 173 0.0 0.0 0.00 0.00 0.00 67 1021.1
20260506044810 35 172 0.0 1.0 0.00 0.00 0.00 68 1021.2
20260506044308 36 176 2.0 2.0 0.00 0.00 0.00 67 1021.3
20260506043805 35 93 2.0 2.0 0.00 0.00 0.00 69 1021.2
20260506043302 36 21 1.0 1.0 0.00 0.00 0.00 68 1020.9
20260506042801 35 33 1.0 1.0 0.00 0.00 0.00 70 1021.2
20260506042259 37 339 0.0 1.0 0.00 0.00 0.00 64 1021.2
20260506041757 37 338 1.0 1.0 0.00 0.00 0.00 64 1021.3
20260506041254 38 341 2.0 2.0 0.00 0.00 0.00 64 1021.2
20260506040751 39 299 3.0 3.0 0.00 0.00 0.00 62 1021.3
20260506040248 39 284 3.0 3.0 0.00 0.00 0.00 62 1021.2
20260506035745 39 291 3.0 3.0 0.00 0.00 0.00 62 1021.2
20260506035242 39 299 4.0 5.0 0.00 0.00 0.00 61 1021.3
20260506034738 40 303 3.0 3.0 0.00 0.00 0.00 60 1021.3
20260506034235 40 300 5.0 5.0 0.00 0.00 0.00 59 1021.3
20260506033727 40 284 5.0 7.0 0.00 0.00 0.00 59 1021.1
20260506033224 39 291 4.0 5.0 0.00 0.00 0.00 60 1021.1
20260506032721 39 280 5.0 7.0 0.00 0.00 0.00 60 1021.2
20260506032218 39 256 5.0 6.0 0.00 0.00 0.00 60 1021.1
20260506031715 40 266 5.0 6.0 0.00 0.00 0.00 59 1020.9
20260506031212 40 292 5.0 5.0 0.00 0.00 0.00 58 1021.1
20260506030710 40 275 4.0 5.0 0.00 0.00 0.00 58 1020.9
20260506030207 41 264 5.0 6.0 0.00 0.00 0.00 56 1020.8
20260506025704 41 287 5.0 6.0 0.00 0.00 0.00 56 1020.5
20260506025200 41 278 5.0 7.0 0.00 0.00 0.00 55 1020.5
20260506024658 41 291 5.0 7.0 0.00 0.00 0.00 55 1020.5
20260506024154 42 298 5.0 7.0 0.00 0.00 0.00 55 1020.4
20260506023650 42 309 4.0 5.0 0.00 0.00 0.00 54 1020.4
20260506023148 43 308 5.0 6.0 0.00 0.00 0.00 53 1020.3
20260506022645 43 353 4.0 5.0 0.00 0.00 0.00 51 1020.3
20260506022142 44 344 5.0 7.0 0.00 0.00 0.00 50 1020.4
20260506021640 44 320 7.0 8.0 0.00 0.00 0.00 49 1020.2
20260506021137 45 305 7.0 10.0 0.00 0.00 0.00 48 1020.1
20260506020634 45 347 7.0 8.0 0.00 0.00 0.00 48 1019.8
20260506020131 46 351 4.0 5.0 0.00 0.00 0.00 47 1020.1
20260506015629 46 358 8.0 9.0 0.00 0.00 0.00 47 1020.1
20260506015126 46 327 5.0 7.0 0.00 0.00 0.00 47 1019.9
20260506014623 46 352 7.0 8.0 0.00 0.00 0.00 47 1020.1
20260506014118 47 310 5.0 6.0 0.00 0.00 0.00 46 1019.9
20260506013617 47 324 7.0 10.0 0.00 0.00 0.00 46 1019.9
20260506013113 46 282 6.0 7.0 0.00 0.00 0.00 48 1019.9
20260506012610 46 315 6.0 7.0 0.00 0.00 0.00 48 1020.1
20260506012106 46 304 11.0 13.0 0.00 0.00 0.00 47 1019.8
20260506011604 46 314 6.0 7.0 0.00 0.00 0.00 48 1019.9
20260506011059 46 344 5.0 7.0 0.00 0.00 0.00 48 1019.9
20260506010554 46 334 9.0 11.0 0.00 0.00 0.00 47 1019.8
20260506010050 47 327 7.0 9.0 0.00 0.00 0.00 48 1019.7
20260506005547 48 278 9.0 10.0 0.00 0.00 0.00 47 1019.5
20260506005043 48 284 7.0 13.0 0.00 0.00 0.00 47 1019.6
20260506004541 48 337 7.0 9.0 0.00 0.00 0.00 47 1019.6
20260506004037 48 352 4.0 7.0 0.00 0.00 0.00 48 1019.5
20260506003534 48 322 6.0 9.0 0.00 0.00 0.00 46 1019.4
20260506003030 48 316 7.0 9.0 0.00 0.00 0.00 47 1019.7
20260506002526 48 351 7.0 10.0 0.00 0.00 0.00 47 1019.5
20260506002022 48 299 7.0 9.0 0.00 0.00 0.00 46 1019.6
20260506001518 49 314 7.0 9.0 0.00 0.00 0.00 45 1019.2
20260506001016 49 358 9.0 11.0 0.00 0.00 0.00 44 1019.5
20260506000514 49 256 8.0 11.0 0.00 0.00 0.00 44 1019.4
20260506000011 49 312 9.0 10.0 0.00 0.00 0.00 43 1019.3
20260505235508 49 36 8.0 10.0 0.00 0.00 0.00 44 1019.5
20260505235004 49 12 7.0 9.0 0.00 0.00 0.00 44 1019.2
20260505234502 49 6 4.0 5.0 0.00 0.00 0.00 43 1019.2
20260505233959 47 293 6.0 8.0 0.00 0.00 0.00 46 1019.3
20260505233456 47 313 7.0 10.0 0.00 0.00 0.00 48 1019.4
20260505232953 47 44 3.0 5.0 0.00 0.00 0.00 47 1019.3
20260505232451 47 336 6.0 9.0 0.00 0.00 0.00 46 1019.2
20260505231948 47 354 4.0 7.0 0.00 0.00 0.00 48 1019.3
20260505231445 47 344 6.0 8.0 0.00 0.00 0.00 47 1019.4
20260505230943 47 321 6.0 10.0 0.00 0.00 0.00 47 1019.3
20260505230441 47 7 8.0 14.0 0.00 0.00 0.00 47 1019.3
20260505225937 47 32 8.0 10.0 0.00 0.00 0.00 46 1019.4
20260505225435 47 334 10.0 11.0 0.00 0.00 0.00 47 1019.2
20260505224930 47 297 6.0 8.0 0.00 0.00 0.00 47 1018.9
20260505224427 47 328 5.0 7.0 0.00 0.00 0.00 47 1019.2
20260505223924 48 335 6.0 9.0 0.00 0.00 0.00 47 1019.3
20260505223421 48 20 4.0 6.0 0.00 0.00 0.00 47 1019.3
20260505222918 48 327 6.0 7.0 0.00 0.00 0.00 48 1019.3
20260505222414 48 323 3.0 3.0 0.00 0.00 0.00 50 1019.5
20260505221910 48 6 6.0 8.0 0.00 0.00 0.00 48 1019.4
20260505221407 48 332 7.0 9.0 0.00 0.00 0.00 49 1019.3
20260505220904 48 32 10.0 13.0 0.00 0.00 0.00 51 1019.2
20260505220401 48 5 5.0 8.0 0.00 0.00 0.00 53 1019.2
20260505215859 48 325 7.0 8.0 0.00 0.00 0.00 52 1019.3
20260505215357 48 279 7.0 9.0 0.00 0.00 0.00 51 1019.1
20260505214855 48 298 9.0 10.0 0.00 0.00 0.00 50 1019.2
20260505214352 48 357 7.0 9.0 0.00 0.00 0.00 50 1019.2
20260505213849 48 7 6.0 9.0 0.00 0.00 0.00 51 1019.2
20260505213347 48 300 6.0 8.0 0.00 0.00 0.00 52 1019.1
20260505212843 49 27 9.0 14.0 0.00 0.00 0.00 47 1019.2
20260505212340 48 330 8.0 10.0 0.00 0.00 0.00 50 1019.2
20260505211836 48 322 9.0 13.0 0.00 0.00 0.00 47 1019.2
20260505211334 49 2 6.0 7.0 0.00 0.00 0.00 49 1019.3
20260505210830 49 292 8.0 9.0 0.00 0.00 0.00 48 1019.4
20260505210327 49 269 7.0 9.0 0.00 0.00 0.00 49 1019.2
20260505205824 48 329 10.0 13.0 0.00 0.00 0.00 52 1019.3
20260505205322 49 59 5.0 7.0 0.00 0.00 0.00 53 1019.1
20260505204818 49 291 10.0 17.0 0.00 0.00 0.00 52 1018.9
20260505204317 51 321 7.0 10.0 0.00 0.00 0.00 51 1019.1
20260505203814 51 354 5.0 7.0 0.00 0.00 0.00 48 1019.2
20260505203310 51 33 6.0 7.0 0.00 0.00 0.00 43 1018.8
20260505202806 50 71 9.0 13.0 0.00 0.00 0.00 46 1019.1
20260505202306 50 310 9.0 10.0 0.00 0.00 0.00 43 1019.1
20260505201800 51 23 6.0 8.0 0.00 0.00 0.00 42 1018.8
20260505201257 51 336 7.0 8.0 0.00 0.00 0.00 43 1018.9
20260505200755 50 17 6.0 10.0 0.00 0.00 0.00 44 1019.2
20260505200252 50 306 6.0 9.0 0.00 0.00 0.00 42 1019.2
20260505195747 50 5 8.0 11.0 0.00 0.00 0.00 40 1019.2
20260505195245 51 298 9.0 11.0 0.00 0.00 0.00 40 1019.1
20260505194742 51 353 5.0 6.0 0.00 0.00 0.00 42 1019.2
20260505194238 52 320 7.0 9.0 0.00 0.00 0.00 42 1019.3
20260505193734 52 333 4.0 7.0 0.00 0.00 0.00 44 1019.4
20260505193232 51 303 10.0 11.0 0.00 0.00 0.00 43 1019.4
20260505192730 50 314 8.0 11.0 0.00 0.00 0.00 43 1019.5
20260505192228 50 50 3.0 5.0 0.00 0.00 0.00 43 1019.4
20260505191726 50 26 7.0 9.0 0.00 0.00 0.00 45 1019.5
20260505191224 50 57 5.0 7.0 0.00 0.00 0.00 46 1019.4
20260505190720 49 354 4.0 5.0 0.00 0.00 0.00 45 1019.3
20260505190219 48 351 3.0 6.0 0.00 0.00 0.00 46 1019.4
20260505185716 50 17 6.0 7.0 0.00 0.00 0.00 44 1019.1
20260505185213 50 25 4.0 5.0 0.00 0.00 0.00 44 1019.4
20260505184709 51 317 6.0 8.0 0.00 0.00 0.00 44 1019.2
20260505184207 49 10 7.0 10.0 0.00 0.00 0.00 45 1019.1
20260505183703 49 323 6.0 7.0 0.00 0.00 0.00 45 1019.4
20260505183201 48 332 2.0 3.0 0.00 0.00 0.00 45 1019.3
20260505182656 49 34 4.0 6.0 0.00 0.00 0.00 45 1019.5
20260505182154 49 7 5.0 6.0 0.00 0.00 0.00 45 1019.3
20260505181650 49 17 6.0 7.0 0.00 0.00 0.00 45 1019.2
20260505181148 49 12 4.0 5.0 0.00 0.00 0.00 45 1019.2
20260505180644 48 36 5.0 7.0 0.00 0.00 0.00 46 1019.3
20260505180141 48 7 5.0 7.0 0.00 0.00 0.00 45 1019.2
20260505175637 49 329 3.0 5.0 0.00 0.00 0.00 47 1019.4
20260505175134 51 11 5.0 7.0 0.00 0.00 0.00 45 1019.2
20260505174630 50 6 6.0 8.0 0.00 0.00 0.00 46 1019.3
20260505174126 49 16 9.0 9.0 0.00 0.00 0.00 47 1019.2
20260505173623 49 53 2.0 3.0 0.00 0.00 0.00 50 1019.4
20260505173120 49 350 3.0 5.0 0.00 0.00 0.00 48 1019.2
20260505172618 49 340 3.0 3.0 0.00 0.00 0.00 48 1019.4
20260505172114 49 273 3.0 5.0 0.00 0.00 0.00 48 1019.2
20260505171609 48 329 4.0 6.0 0.00 0.00 0.00 47 1019.5
20260505171106 47 340 5.0 6.0 0.00 0.00 0.00 49 1019.3
20260505170603 47 264 7.0 8.0 0.00 0.00 0.00 49 1019.6
20260505170059 46 272 10.0 13.0 0.00 0.00 0.00 49 1019.6
20260505165554 46 284 9.0 10.0 0.00 0.00 0.00 49 1019.4
20260505165051 46 284 2.0 3.0 0.00 0.00 0.00 51 1019.5
20260505164546 46 298 7.0 9.0 0.00 0.00 0.00 51 1019.5
20260505164044 45 314 3.0 5.0 0.00 0.00 0.00 52 1019.5
20260505163543 46 345 2.0 2.0 0.00 0.00 0.00 52 1019.6
20260505163039 46 312 6.0 7.0 0.00 0.00 0.00 52 1019.6
20260505162532 45 292 3.0 3.0 0.00 0.00 0.00 52 1019.6
20260505162029 45 56 2.0 2.0 0.00 0.00 0.00 53 1019.6
20260505161526 46 291 7.0 8.0 0.00 0.00 0.00 51 1019.7
20260505161023 45 7 0.0 1.0 0.00 0.00 0.00 51 1019.5
20260505160521 44 347 0.0 0.0 0.00 0.00 0.00 53 1019.6
20260505152957 44 359 3.0 3.0 0.00 0.00 0.00 57 1019.7
20260505152455 44 26 1.0 1.0 0.00 0.00 0.00 56 1019.8
20260505151950 43 7 1.0 1.0 0.00 0.00 0.00 58 1019.8
20260505151445 43 26 2.0 3.0 0.00 0.00 0.00 57 1019.6
20260505150943 43 40 1.0 1.0 0.00 0.00 0.00 59 1019.8
20260505150439 42 333 3.0 5.0 0.00 0.00 0.00 59 1019.8
20260505140410 38 272 3.0 3.0 0.00 0.00 0.00 70 1019.5
20260505124823 33 40 0.0 0.0 0.00 0.00 0.00 78 1018.7
20260505124320 33 40 0.0 0.0 0.00 0.00 0.00 78 1018.7
20260505123816 33 40 0.0 0.0 0.00 0.00 0.00 77 1018.7
20260505123313 32 40 0.0 0.0 0.00 0.00 0.00 78 1018.6
20260505122809 32 45 0.0 0.0 0.00 0.00 0.00 77 1018.8
20260505122307 33 178 0.0 0.0 0.00 0.00 0.00 75 1018.6
20260505121803 33 178 2.0 2.0 0.00 0.00 0.00 74 1018.5
20260505121300 32 173 0.0 1.0 0.00 0.00 0.00 76 1018.5
20260505120756 32 173 1.0 2.0 0.00 0.00 0.00 78 1018.4
20260505120252 31 88 1.0 2.0 0.00 0.00 0.00 81 1018.4
20260505115751 31 81 2.0 2.0 0.00 0.00 0.00 79 1018.5
20260505115249 32 78 0.0 0.0 0.00 0.00 0.00 77 1018.5
20260505114746 32 79 0.0 0.0 0.00 0.00 0.00 77 1018.3
20260505114242 32 78 0.0 0.0 0.00 0.00 0.00 78 1018.4
20260505113739 32 78 1.0 1.0 0.00 0.00 0.00 77 1018.3
20260505113235 32 107 1.0 1.0 0.00 0.00 0.00 76 1017.9
20260505112731 33 167 1.0 1.0 0.00 0.00 0.00 75 1018.2
20260505112229 33 172 1.0 1.0 0.00 0.00 0.00 75 1018.3
20260505111729 33 170 0.0 0.0 0.00 0.00 0.00 75 1018.3
20260505111225 33 159 0.0 1.0 0.00 0.00 0.00 74 1018.3
20260505110721 33 164 1.0 1.0 0.00 0.00 0.00 73 1018.2
20260505110219 34 178 1.0 2.0 0.00 0.00 0.00 74 1018.3